Location: Squirrel Cove
(50.1074°N, 124.9139°W)
Time: 13:25:54
(UTC-07:00)

PCSat - Pass Details

Date: 23 May 2022
Orbit: 784 x 795 km, 67.1° (Epoch: 26 June)

Event Time Altitude Azimuth Distance (km) Brightness Sun altitude
Rises 23:40:51 0° 312° (NW) 3,303 14.0 -16.0°
Reaches altitude 10° 23:44:38 10° 338° (NNW) 2,374 13.4 -16.3°
Maximum altitude 23:47:20 14° 8° (N) 2,126 12.7 -16.4°
Drops below altitude 10° 23:50:01 10° 38° (NE) 2,373 12.4 -16.6°
Sets 23:53:48 0° 64° (ENE) 3,302 12.9 -16.8°
